Regional Weather Roundup
Issued by NWS

Home | Current Version | Previous Version | Graphics & Text | Print | Product List | Glossary On
Versions: 1 2 3 4 5 6 7 8 9 10 11 12 13 14 15 16 17 18 19 20 21 22 23 24 25 26 27 28 29 30 31 32 33 34 35 36 37 38 39 40 41 42 43 44 45 46 47 48 49 50
000
ASUS43 KLMK 011702
RWRKY
KENTUCKY REGIONAL WEATHER ROUNDUP
NATIONAL WEATHER SERVICE LOUISVILLE KY
100 PM EDT MON SEP 01 2014

NOTE "FAIR" INDICATES FEW OR NO CLOUDS BELOW 12,000 FEET
WITH NO SIGNIFICANT WEATHER AND/OR OBSTRUCTIONS TO VISIBILITY.

KYZ001>023-026-027-061>063-070>075-011800-
WESTERN AND SOUTH CENTRAL KENTUCKY

CITY           SKY/WX    TMP DP  RH WIND       PRES   REMARKS
PADUCAH        CLOUDY    84  73  69 SW17G25   29.98F HX  90
HENDERSON      PTSUNNY   86  70  58 SW16G31   29.94F HX  90
OWENSBORO      NOT AVBL
HOPKINSVILLE   MOSUNNY   86  75  69 SW23      30.03S HAZE    HX  94
BOWLING GREEN  HVY RAIN  79  72  79 SW10      30.04F
GLASGOW        MOSUNNY   85  72  66 SW12G17   30.04F HX  91
$$

KYZ024-025-028>034-038-045-046-053-011800-
NORTH CENTRAL KENTUCKY

CITY           SKY/WX    TMP DP  RH WIND       PRES   REMARKS
LOUISVILLE/SDF PTSUNNY   84  71  65 SW18G28   29.98F
LOUISVILLE/LOU PTSUNNY   83  72  69 SW10G21   29.98F
FORT KNOX      MOSUNNY   83  74  75 SW12G18   29.99F
$$

KYZ035>037-039>044-047>052-055>060-089>105-011800-
NORTHEAST KENTUCKY

CITY           SKY/WX    TMP DP  RH WIND       PRES   REMARKS
LEXINGTON      PTSUNNY   83  70  64 W15G22    30.03F
COVINGTON      CLOUDY    81  71  71 S17G23    29.97S
FRANKFORT      PTSUNNY   82  72  71 SW15G29   30.01F
$$

KYZ054-064>069-076>088-106>120-011800-
SOUTHEAST KENTUCKY

CITY           SKY/WX    TMP DP  RH WIND       PRES   REMARKS
JACKSON        MOSUNNY   82  70  66 VRB5      30.10F
LONDON         MOSUNNY   85  69  58 W12       30.10F
SOMERSET       MOSUNNY   82  70  65 SW12G18   30.09F
MIDDLESBORO    PTSUNNY   83  72  67 S12       30.13F
MONTICELLO     PTSUNNY   84  74  72 SW9       30.10F HX  91
$$




USA.gov is the U.S. government's official web portal to all federal, state and local government web resources and services.